Location: Grand Moustoir
(47.8355°N, 3.3120°W)
Time: 05:55:58
(UTC+00:00)

ATLAS 3B R/B - Pass Details

Date: 20 January 2020
Orbit: 1020 x 1175 km, 63.8° (Epoch: 20 February)

Event Time Altitude Azimuth Distance (km) Brightness Sun altitude
Exits shadow 04:06:41 24° 13° (NNE) 2,024 4.3 -37.7°
Maximum altitude 04:07:00 24° 18° (NNE) 2,021 4.3 -37.7°
Drops below altitude 10° 04:12:21 10° 70° (ENE) 2,890 5.7 -36.8°
Sets 04:15:39 0° 84° (E) 3,869 6.6 -36.2°
